Location: Evergreen Manor
(41.4083°N, 81.4939°W)
Time: 23:21:50
(UTC+00:00)

Cosmos 1603 - Pass Details

Date: 11 December 2019
Orbit: 830 x 860 km, 71.0° (Epoch: 26 January)

Event Time Altitude Azimuth Distance (km) Brightness Sun altitude
Rises 00:14:32 0° 187° (S) 3,395 7.1 -25.1°
Reaches altitude 10° 00:17:01 10° 183° (S) 2,468 6.2 -25.5°
Enters shadow 00:20:52 40° 156° (SSE) 1,244 4.4 -26.3°
